Location: Newark
(7.0667°N, 171.2667°E)
Time: 20:42:14
(UTC+00:00)

N. Korean satellite - Visible Passes

Search period start: 18 September 2020 00:00
Search period end: 28 September 2020 00:00
Orbit: 455 x 503 km, 97.2° (Epoch: 17 September)

Date Brightness Start Highest point End Pass type
(mag) Time Alt. Az. Time Alt. Az. Time Alt. Az.
18 Sep 6.6 17:59:56 10° N 18:03:29 58° W 18:06:58 10° SSW visible
19 Sep 7.8 17:34:05 10° NNE 17:37:32 45° E 17:40:56 10° S visible
20 Sep 9.7 17:09:11 10° ENE 17:11:34 17° E 17:13:55 10° SE visible
22 Sep 6.5 17:49:15 10° N 17:52:49 89° E 17:56:20 10° S visible
23 Sep 8.7 17:23:43 10° NE 17:26:51 29° E 17:29:56 10° SSE visible
24 Sep 10.1 16:59:43 10° E 17:00:51 11° E 17:02:00 10° ESE visible
26 Sep 7.3 17:38:38 10° NNE 17:42:06 56° E 17:45:31 10° S visible
27 Sep 9.4 17:13:30 10° NE 17:16:07 20° E 17:18:42 10° SSE visible
